Location: Beaver Brook Trail
(44.0290°N, 71.8137°W)
Time: 00:48:08
(UTC+00:00)

ACS3 Solar Sail - Visible Passes

Search period start: 08 October 2024 00:00
Search period end: 18 October 2024 00:00
Orbit: 962 x 1035 km, 97.4° (Epoch: 07 October)

Date Brightness Start Highest point End Pass type
(mag) Time Alt. Az. Time Alt. Az. Time Alt. Az.
08 Oct 1.7 00:36:56 48° SSE 00:38:54 81° ENE 00:45:16 10° N visible
08 Oct 4.1 02:22:05 16° WSW 02:23:29 17° W 02:27:31 10° NW visible
08 Oct 2.9 23:23:57 17° ESE 23:27:09 26° ENE 23:32:10 10° N visible
09 Oct 2.3 01:09:06 48° SSW 01:10:36 60° W 01:16:53 10° NNW visible
09 Oct 2.2 23:56:06 31° ESE 23:58:29 43° ENE 00:04:23 10° N visible
10 Oct 3.2 01:41:15 32° WSW 01:42:28 34° W 01:48:10 10° NNW visible
10 Oct 3.5 22:44:12 10° E 22:47:08 14° NE 22:50:03 10° NNE visible
11 Oct 1.7 00:28:14 50° SE 00:29:59 73° ENE 00:36:17 10° N visible
11 Oct 3.9 02:13:24 19° W 02:14:27 19° W 02:18:52 10° NW visible
11 Oct 3.0 23:15:13 16° E 23:18:15 23° ENE 23:23:00 10° NNE visible
12 Oct 2.1 01:00:21 55° SSW 01:01:37 67° W 01:07:55 10° NNW visible
12 Oct 2.3 23:47:19 30° ESE 23:49:31 38° ENE 23:55:15 10° N visible
13 Oct 3.0 01:32:28 36° WSW 01:33:23 38° W 01:39:14 10° NNW visible
13 Oct 3.6 22:35:55 10° ENE 22:38:11 12° NE 22:40:26 10° NNE visible
14 Oct 1.8 00:19:25 50° SE 00:20:56 65° ENE 00:27:10 10° N visible
14 Oct 3.8 02:04:34 21° W 02:05:18 22° W 02:10:02 10° NW visible
14 Oct 3.1 23:06:21 15° E 23:09:13 21° ENE 23:13:40 10° NNE visible
15 Oct 1.9 00:51:30 63° SSW 00:52:29 75° W 00:58:48 10° NNW visible
15 Oct 4.4 02:36:38 11° W 02:37:24 11° W 02:39:17 10° WNW visible
15 Oct 2.5 23:38:25 28° E 23:40:25 34° ENE 23:45:58 10° N visible
16 Oct 2.8 01:23:33 42° WSW 01:24:11 43° W 01:30:08 10° NNW visible
16 Oct 3.6 22:27:56 10° ENE 22:29:07 11° NE 22:30:18 10° NE visible
17 Oct 1.9 00:10:27 49° ESE 00:11:45 58° ENE 00:17:53 10° N visible
17 Oct 3.7 01:55:36 24° W 01:56:01 24° W 02:01:01 10° NW visible
17 Oct 3.2 22:57:21 14° E 23:00:05 19° ENE 23:04:10 10° NNE visible
